Flag for U.S.A. Weather past 2 weeks in New Haven, Connecticut, U.S.A.

Now
14 °F

Sunny.


Feels Like: 4 °F
Forecast: 6 / 26 °F
Wind: 7 mph from Northwest

Location: Tweed-New Haven Airport

Current Time: Feb 28, 2015 at 8:18:21 AM

Latest Report: Feb 28, 2015 at 7:53 AM


Visibility: 10 mi

Pressure: 30.77 "Hg

Humidity: 56%

Dew point: 1 °F

Location of New HavenLocation

Historic Weather in New Haven — Graph

°F

New Haven temperature yesterday

Maximum temperature yesterday: 27 °F (at 1:53 PM)
Minimum temperature yesterday: 16 °F (at 3:53 AM)
Average temperature yesterday: 21 °F

Past Weeks' High & Low Weather Summary

 TemperatureHumidityPressure
High37 °F (Feb 22, 12:53 PM)100% (Feb 21, 9:53 PM)30.74 "Hg (Feb 21, 9:53 PM)
Low-2 °F (Feb 21, 4:53 AM)23% (Feb 16, 3:53 PM)29.39 "Hg (Feb 15, 12:53 AM)
Average18 °F59%30.05 "Hg
* Reported Feb 13 6:53 AM — Feb 28 6:53 AM, New Haven, Weather by CustomWeather, © 2015

Note: Actual official high and low records may vary slightly from our data, if they occured in-between our weather recording intervals... More about our weather records

Advertising

New Haven weather history for previous 24 hours

 ConditionsComfort  
Time TempWeatherWind HumidityBarometerVisibility
6:53 AM
Sat, Feb 28
12 °FSunny.8 mph58%30.74 "Hg10 mi
5:53 AM12 °FPassing clouds.6 mph58%30.71 "Hg10 mi
4:53 AM12 °FClear.7 mph56%30.69 "Hg10 mi
3:53 AM12 °FClear.6 mph56%30.67 "Hg10 mi
2:53 AM13 °FClear.6 mph54%30.63 "Hg10 mi
1:53 AM13 °FClear.7 mph54%30.63 "Hg10 mi
12:53 AM16 °FClear.8 mph49%30.62 "Hg10 mi
11:53 PM
Fri, Feb 27
18 °FClear.10 mph45%30.59 "Hg10 mi
10:53 PM19 °FClear.7 mph45%30.58 "Hg10 mi
9:53 PM20 °FClear.5 mph43%30.55 "Hg10 mi
8:53 PM22 °FClear.8 mph40%30.52 "Hg10 mi
7:53 PM22 °FClear.6 mph40%30.48 "Hg10 mi
6:53 PM23 °FClear.5 mph38%30.47 "Hg10 mi
5:53 PM25 °FClear.6 mph37%30.44 "Hg10 mi
4:53 PM26 °FPassing clouds.8 mph31%30.40 "Hg10 mi
3:53 PM27 °FSunny.10 mph31%30.39 "Hg10 mi
2:53 PM27 °FSunny.10 mph31%30.37 "Hg10 mi
1:53 PM27 °FSunny.7 mph32%30.35 "Hg10 mi
12:53 PM26 °FSunny.7 mph33%30.36 "Hg10 mi
11:53 AM24 °FSunny.6 mph38%30.37 "Hg10 mi
10:53 AM22 °FSunny.6 mph46%30.37 "Hg10 mi
9:53 AM20 °FSunny.10 mph50%30.36 "Hg10 mi
8:53 AM18 °FSunny.13 mph54%30.35 "Hg10 mi
Weather by CustomWeather, © 2015

See weather overviewHow to use our weather pages